Change the Weather History Date:

Saturday, March 8, 2014

  Actual Average Record
Temperature  
Mean Temperature 72 °F -  
Max Temperature 86 °F 74 °F 86 °F (2014)
Min Temperature 59 °F 51 °F 44 °F (2005)
Cooling Degree Days 8    
Growing Degree Days 22 (Base 50)    
Moisture  
Dew Point 36 °F    
Average Humidity 28    
Maximum Humidity 48    
Minimum Humidity 7    
Precipitation  
Precipitation 0.00 in 0.05 in - ()
Sea Level Pressure  
Sea Level Pressure 29.97 in    
Wind  
Wind Speed 5 mph ()    
Max Wind Speed 17 mph    
Max Gust Speed -    
Visibility 5.8 miles    
Events      
Averages and records for this station are not official NWS values.
T = Trace of Precipitation, MM = Missing Value Source: Averaged Metar Reports

Daily Weather History Graph

Daily Weather History Graph

Search for Another Location

Airport or City:

Trip Planner

Search our weather history database for the weather conditions in past years. The results will help you decide how hot, cold, wet, or windy it might be!

Date:

Astronomy

Mar. 08, 2014 Rise Set
Actual Time 6:51 AM WET 6:35 PM WET
Civil Twilight 6:26 AM WET 6:59 PM WET
Nautical Twilight 5:58 AM WET 7:27 PM WET
Astronomical Twilight 5:30 AM WET 7:55 PM WET
Moon 11:44 AM WET (3/8) 12:59 AM WET (3/8)
Length of Visible Light 12h 32m
Length of Day
11h 44m
Waxing Crescent, 49% of the Moon is Illuminated
Mar 8
Waxing Crescent
Mar 8
First Quarter
Mar 16
Full
Mar 24
Last Quarter
Mar 30
New

Hourly Weather History & Observations

Time (WET) Temp. Dew Point Humidity Pressure Visibility Wind Dir Wind Speed Gust Speed Precip Events Conditions
12:00 AM 69 °F 42 °F 26% 29.94 in 6 mi ESE 3.5 mph - -  
12:00 AM 69.8 °F 41.0 °F 35% 29.98 in - ESE 3.5 mph - N/A   Clear
12:30 AM 66.2 °F 41.0 °F 40% 29.98 in - SSE 4.6 mph - N/A   Clear
1:00 AM 64.4 °F 41.0 °F 42% 29.98 in - ESE 3.5 mph - N/A   Clear
1:30 AM 62.6 °F 42.8 °F 48% 29.98 in - Variable 2.3 mph - N/A   Unknown
2:00 AM 62.6 °F 42.8 °F 48% 29.98 in - Variable 2.3 mph - N/A   Clear
2:30 AM 60.8 °F 41.0 °F 48% 29.98 in - East 3.5 mph - N/A   Clear
3:00 AM 60 °F 42 °F 39% 29.95 in - SSW 2.3 mph - -  
3:00 AM 60.8 °F 41.0 °F 48% 29.98 in - Variable 2.3 mph - N/A   Clear
3:30 AM 60.8 °F 41.0 °F 48% 29.95 in - SSW 2.3 mph - N/A   Unknown
4:00 AM 60.8 °F 41.0 °F 48% 29.95 in - SSE 3.5 mph - N/A   Clear
4:30 AM 60.8 °F 41.0 °F 48% 29.95 in - Variable 2.3 mph - N/A   Clear
5:00 AM 60.8 °F 39.2 °F 45% 29.95 in - SSE 3.5 mph - N/A   Clear
5:30 AM 60.8 °F 37.4 °F 42% 29.98 in - SE 4.6 mph - N/A   Unknown
6:00 AM 61 °F 37 °F 29% 29.95 in 6 mi SE 4.6 mph - -  
6:00 AM 60.8 °F 37.4 °F 42% 29.98 in - SE 4.6 mph - N/A   Clear
6:30 AM 59.0 °F 37.4 °F 45% 29.98 in 6.2 mi ESE 3.5 mph - N/A   Partly Cloudy
7:00 AM 59.0 °F 35.6 °F 42% 29.98 in 6.2 mi East 8.1 mph - N/A   Scattered Clouds
7:30 AM 59.0 °F 37.4 °F 45% 29.98 in 6.2 mi ENE 6.9 mph - N/A   Scattered Clouds
8:00 AM 59.0 °F 37.4 °F 45% 29.98 in 6.2 mi ENE 6.9 mph - N/A   Scattered Clouds
8:30 AM 59.0 °F 37.4 °F 45% 29.98 in 6.2 mi ENE 6.9 mph - N/A   Mostly Cloudy
8:45 AM 59 °F 37 °F 33% 29.97 in 6 mi ENE 6.9 mph - -   Partly Cloudy
9:00 AM 59.0 °F 37.4 °F 45% 29.98 in 6.2 mi ENE 6.9 mph - N/A   Mostly Cloudy
9:30 AM 59.0 °F 37.4 °F 45% 29.98 in 6.2 mi ENE 6.9 mph - N/A   Mostly Cloudy
10:00 AM 80.6 °F 33.8 °F 18% 30.04 in 6.2 mi South 4.6 mph - N/A   Mostly Cloudy
10:30 AM 80.6 °F 33.8 °F 18% 30.04 in 6.2 mi SSE 4.6 mph - N/A   Mostly Cloudy
11:00 AM 84.2 °F 32.0 °F 15% 30.04 in 5.0 mi SSW 11.5 mph - N/A   Mostly Cloudy
11:30 AM 84.2 °F 30.2 °F 14% 30.04 in 5.0 mi SSW 11.5 mph - N/A   Mostly Cloudy
12:00 PM 84 °F 30 °F 7% 29.93 in 5 mi SSW 15.0 mph - -   Partly Cloudy
12:00 PM 84.2 °F 30.2 °F 14% 30.01 in 5.0 mi SSW 15.0 mph - N/A   Mostly Cloudy
12:30 PM 84.2 °F 32.0 °F 15% 30.01 in 5.0 mi SSW 12.7 mph - N/A   Mostly Cloudy
1:00 PM 86.0 °F 32.0 °F 14% 30.01 in 5.0 mi South 13.8 mph - N/A   Scattered Clouds
1:30 PM 86.0 °F 32.0 °F 14% 29.98 in 6.2 mi South 6.9 mph - N/A   Mostly Cloudy
2:00 PM 86.0 °F 30.2 °F 13% 29.98 in 6.2 mi SSE 5.8 mph - N/A   Mostly Cloudy
2:30 PM 86.0 °F 33.8 °F 15% 29.95 in 6.2 mi East 9.2 mph - N/A   Mostly Cloudy
3:00 PM 85 °F 32 °F 8% 29.88 in 6 mi South 4.6 mph - -   Partly Cloudy
3:00 PM 86.0 °F 32.0 °F 14% 29.98 in 6.2 mi Variable 5.8 mph - N/A   Mostly Cloudy
3:30 PM 84.2 °F 32.0 °F 15% 29.95 in 5.0 mi SSE 9.2 mph - N/A   Mostly Cloudy
4:00 PM 84.2 °F 32.0 °F 15% 29.95 in 5.0 mi SSW 17.3 mph - N/A   Mostly Cloudy
4:30 PM 84.2 °F 32.0 °F 15% 29.95 in 5.0 mi SSW 11.5 mph - N/A   Mostly Cloudy
5:00 PM 82.4 °F 50.0 °F 32% 29.95 in 5.0 mi SW 9.2 mph - N/A   Mostly Cloudy
5:30 PM 82.4 °F 32.0 °F 16% 29.95 in 5.0 mi SW 9.2 mph - N/A   Mostly Cloudy
5:48 PM 82 °F 33 °F 9% 29.87 in 5 mi SW 9.2 mph - -   Partly Cloudy
6:00 PM 82.4 °F 33.8 °F 17% 29.95 in 5.0 mi SW 9.2 mph - N/A   Mostly Cloudy
6:30 PM 78.8 °F 33.8 °F 20% 29.95 in 6.2 mi SW 5.8 mph - N/A   Mostly Cloudy
7:00 PM 78.8 °F 33.8 °F 20% 29.95 in 6.2 mi SW 6.9 mph - N/A   Mostly Cloudy
7:30 PM 77.0 °F 33.8 °F 21% 29.95 in 6.2 mi WSW 8.1 mph - N/A   Mostly Cloudy
8:00 PM - - N/A% 29.95 in 6.2 mi WSW 6.9 mph - N/A   Mostly Cloudy
8:30 PM 77.0 °F 35.6 °F 22% 29.98 in 6.2 mi WNW 4.6 mph - N/A   Mostly Cloudy
9:00 PM 75 °F 36 °F 15% 29.92 in 6 mi WNW 4.6 mph - -   Partly Cloudy
9:00 PM 75.2 °F 35.6 °F 24% 29.98 in 6.2 mi South 4.6 mph - N/A   Mostly Cloudy
9:30 PM 75.2 °F 35.6 °F 24% 30.01 in 6.2 mi Calm Calm - N/A   Mostly Cloudy
10:00 PM 75.2 °F 35.6 °F 24% 30.04 in 6.2 mi SSW 5.8 mph - N/A   Scattered Clouds
11:00 PM 77.0 °F 35.6 °F 22% 30.01 in 6.2 mi ESE 11.5 mph - N/A   Scattered Clouds
11:30 PM 75.2 °F 35.6 °F 24% 30.01 in 6.2 mi ESE 6.9 mph - N/A   Scattered Clouds
11:46 PM 74 °F 37 °F 16% 29.93 in 6 mi ESE 4.6 mph - -   Partly Cloudy